Location: Champseau
(45.8333°N, 1.7667°E)
Time: 16:12:36
(UTC+00:00)

X-37B - Pass Details

Date: 02 October 2021
Orbit: 385 x 389 km, 45.0° (Epoch: 17 October)

Event Time Altitude Azimuth Distance (km) Brightness Sun altitude
Exits shadow 03:20:32 15° 105° (ESE) 1,142 3.5 -26.7°
Drops below altitude 10° 03:21:13 10° 103° (ESE) 1,412 4.0 -26.6°
Sets 03:23:17 0° 102° (ESE) 2,266 5.3 -26.2°
